SCP
0 0 0 -0 -0 0 0 0 0 0 0 0 0 0 0 0 0 0 0 0 0 0 0 0 0 0 0 0 0 0 0 0
0 0 -0 0 -0 -0 -0 0 0 0 0 0 0 0 0 0 0 0 0 0 0 0 0 0 0 0 0 0 0 0 0 0
0 0 -0 0 -0 -0 -0 -0 0 0 0 0 0 0 0 0 0 0 0 0 0 0 0 0 0 0 0 0 0 0 0 0
0 0 0 -0 -0 -0 -0 -0 -0 0 0 0 0 0 0 0 0 0 0 0 0 0 0 0 0 0 0 0 0 0 0 0
0 0 0 0 -0 -0 -0 -0 0 0 0 0 0 0 0 0 0 0 0 0 0 0 0 0 0 0 0 0 0 0 0 0
0 0 0 0 -0 -0 -0 -0 -0 0 0 0 0 0 0 0 0 0 0 0 0 0 0 0 0 0 0 0 0 0 0 0
0 0 0 0 0 -0 -0 -0 -0 0 0 0 0 0 0 0 0 0 0 0 0 0 0 0 0 0 0 0 0 0 0 0
0 0 0 0 0 0 0 0 0 0 -0 -0 0 0 0 0 0 0 0 0 0 0 0 0 0 0 0 0 0 0 0 0
0 0 0 0 0 0 0 0 0 -0 -0 -0 -0 -0 0 0 0 0 0 0 0 0 0 0 0 0 0 -0 -0 -0 0 0
0 0 0 0 0 0 0 0 0 0 0 0 0 0 0 0 0 0 0 0 0 0 0 0 0 0 -0 -0 0 0 0 0
0 0 0 0 0 0 0 0 0 0 0 0 0 0 0 0 0 0 0 0 0 0 0 0 0 0 -0 0 0 0 0 0
0 0 0 0 0 0 0 0 0 0 0 0 0 0 0 0 0 0 0 0 0 0 0 0 0 0 -0 0 0 0 0 0
0 0 0 0 0 0 0 0 0 0 0 0 0 0 0 0 0 0 0 0 0 0 -0 -0 -0 -0 -0 -0 -0 0 0 0
0 0 0 0 0 0 0 0 0 0 0 0 0 0 0 0 0 0 0 0 -0 0 0 0 0 0 -0 -0 0 0 0 0
0 0 0 0 0 0 0 0 0 0 0 0 0 0 0 0 0 0 0 0 0 -0 -0 -0 -0 0 0 0 0 0 0 0
0 0 0 0 0 0 0 0 0 0 0 0 0 0 0 0 0 0 0 -0 -0 0 -0 -0 0 0 0 0 0 0 0 0
0 0 0 0 0 0 0 0 0 0 0 0 0 0 0 0 0 -0 -0 -0 -0 -0 -0 0 0 0 0 0 0 0 0 0
0 0 0 0 0 0 0 0 0 0 0 0 0 0 0 0 0 0 0 -0 0 0 0 0 0 0 0 0 0 0 0 0
0 0 0 0 0 0 0 0 0 0 0 0 0 0 0 0 0 0 0 0 0 0 0 0 0 0 0 0 0 0 0 0
0 0 0 0 0 0 0 0 0 0 0 0 0 0 0 0 0 0 0 0 0 0 0 0 0 0 0 0 0 0 0 0
Wind_Speed_500mb
64 60 53 46 45 41 33 33 31 24 19 24 25 31 30 30 30 31 28 31 36 36 50 51 56 35 53 56 52 63 73 75
64 57 53 49 43 41 34 30 30 27 24 24 25 25 33 33 29 28 30 30 36 28 40 46 42 29 48 58 58 65 68 74
64 59 56 52 45 43 35 26 20 19 21 22 23 23 22 24 30 26 22 26 32 26 13 34 40 30 29 39 69 54 69 78
65 66 61 54 47 44 40 35 27 20 19 19 18 17 17 20 24 24 23 22 31 29 14 20 46 18 22 31 53 54 47 50
61 62 61 56 49 44 40 35 29 23 18 14 14 14 14 16 17 19 24 23 28 28 16 13 39 37 41 34 31 34 40 28
58 56 56 57 51 44 38 35 30 24 19 13 9 8 11 13 15 20 19 18 21 16 18 17 28 32 42 50 44 37 37 32
51 53 53 56 53 42 35 32 27 21 16 10 6 1 7 9 13 17 20 21 18 17 15 23 32 46 54 51 41 43 36 35
46 47 45 48 53 47 40 33 28 27 22 16 11 12 16 16 17 21 25 27 12 27 36 54 58 58 59 57 52 46 40 41
41 41 42 43 45 49 49 41 37 36 34 29 23 28 29 36 40 43 45 48 54 59 63 65 57 53 54 49 51 49 44 42
37 38 35 34 42 48 53 52 54 52 49 47 45 48 50 56 58 60 66 70 67 66 65 62 52 51 54 48 50 50 48 43
34 36 33 30 28 33 44 52 56 55 53 54 60 66 66 65 67 65 64 63 63 61 55 53 54 47 45 37 36 36 36 33
30 35 35 30 27 26 30 40 45 45 44 47 51 56 60 60 58 57 57 54 52 49 49 48 47 45 39 34 30 27 26 25
28 32 33 31 28 26 27 30 32 36 40 44 46 47 47 48 46 43 41 41 39 37 37 37 36 31 27 23 18 17 14 14
22 27 28 28 29 28 26 25 27 26 29 32 32 32 32 31 33 33 31 30 27 24 26 26 23 19 14 9 5 2 3 3
18 23 25 25 25 25 24 23 21 21 21 20 20 20 19 19 21 22 22 21 20 20 19 18 16 14 13 9 5 0 4 6
13 14 19 21 23 24 24 22 19 18 17 16 17 19 20 21 25 23 23 20 18 16 14 13 11 8 6 3 1 1 5 8
8 8 12 15 17 17 17 17 17 16 17 15 15 15 16 18 19 20 22 21 22 20 16 17 17 16 14 11 5 2 8 13
10 5 6 10 12 13 14 15 15 16 15 13 13 13 14 14 14 14 17 18 17 16 15 16 18 17 16 12 11 9 11 15
15 11 6 1 5 8 9 10 10 11 11 11 11 11 11 11 13 14 15 14 15 15 16 14 11 8 6 5 6 5 4 8
21 18 13 8 4 3 4 4 4 6 5 4 4 4 5 6 7 7 7 8 9 10 9 9 9 11 11 10 9 8 6 5
Wind_Direction_500mb
339 338 337 333 330 336 338 339 339 329 297 279 262 244 242 244 245 246 256 262 253 273 250 243 252 232 219 218 226 223 220 228
346 346 343 339 342 338 341 345 346 335 307 278 266 264 256 252 257 258 252 256 255 267 240 240 244 237 203 219 228 230 237 239
354 353 351 349 350 346 346 344 337 335 320 300 277 268 262 255 251 252 261 245 251 261 269 234 235 230 207 219 226 234 236 245
359 2 1 357 356 354 353 348 344 333 318 310 303 294 282 273 263 252 238 252 249 255 284 235 228 252 198 206 206 203 222 227
360 4 4 3 3 1 358 353 346 338 326 307 286 277 268 270 271 260 247 249 263 241 286 270 214 235 177 197 183 214 194 190
357 4 9 8 8 7 10 4 357 348 337 330 318 285 254 243 248 252 248 242 255 243 262 251 199 186 169 169 159 167 162 150
357 5 11 12 17 17 20 22 12 5 3 357 337 289 206 200 185 210 215 203 198 207 230 184 166 155 150 140 146 131 127 129
359 6 12 19 22 24 34 43 45 47 47 53 86 113 129 144 159 158 158 148 159 147 154 138 138 137 127 127 125 123 123 119
5 14 13 20 29 37 48 53 60 64 66 67 81 104 119 121 127 132 127 126 135 130 127 122 118 119 117 120 120 120 119 118
9 11 21 25 25 34 51 58 62 67 79 88 97 105 112 109 106 108 113 113 111 111 110 108 108 109 107 111 118 120 124 126
14 12 21 33 36 39 43 53 58 59 68 81 91 96 96 97 97 100 99 99 99 99 100 101 99 97 98 103 113 121 123 126
13 16 19 29 39 43 50 57 58 63 69 76 77 81 85 86 88 92 99 102 104 101 101 102 104 106 113 117 120 123 128 128
9 16 20 24 33 40 49 60 63 66 72 73 76 81 86 91 95 92 94 99 102 101 100 100 103 109 115 117 119 123 136 134
5 13 20 27 28 32 41 50 58 62 68 76 81 85 87 90 93 95 98 102 98 94 93 92 91 97 108 120 121 148 141 141
353 6 16 25 34 40 41 42 49 55 57 63 69 70 72 75 80 86 89 82 80 77 74 74 73 73 72 69 87 133 304 337
334 358 17 29 30 30 34 39 44 51 50 51 58 60 59 63 68 65 67 67 67 61 51 50 46 39 31 39 44 340 307 311
302 342 15 29 34 40 45 49 49 51 55 53 56 57 60 61 57 56 53 44 36 34 32 24 21 18 7 9 347 307 293 296
249 270 359 26 33 34 39 44 46 48 50 46 44 39 37 37 42 37 31 30 24 25 19 10 5 3 359 351 339 314 277 259
239 237 238 322 30 26 28 34 38 41 45 47 40 34 28 26 25 17 13 14 9 4 4 7 10 10 11 2 5 350 293 285
237 236 239 241 254 310 349 5 29 30 23 22 20 20 5 357 349 346 335 332 333 341 348 349 352 354 355 356 0 355 335 299
Wind_Speed_850mb
64 60 53 46 45 41 33 33 31 24 19 24 25 31 30 30 30 31 28 31 36 36 50 51 56 35 53 56 52 63 73 75
64 57 53 49 43 41 34 30 30 27 24 24 25 25 33 33 29 28 30 30 36 28 40 46 42 29 48 58 58 65 68 74
64 59 56 52 45 43 35 26 20 19 21 22 23 23 22 24 30 26 22 26 32 26 13 34 40 30 29 39 69 54 69 78
65 66 61 54 47 44 40 35 27 20 19 19 18 17 17 20 24 24 23 22 31 29 14 20 46 18 22 31 53 54 47 50
61 62 61 56 49 44 40 35 29 23 18 14 14 14 14 16 17 19 24 23 28 28 16 13 39 37 41 34 31 34 40 28
58 56 56 57 51 44 38 35 30 24 19 13 9 8 11 13 15 20 19 18 21 16 18 17 28 32 42 50 44 37 37 32
51 53 53 56 53 42 35 32 27 21 16 10 6 1 7 9 13 17 20 21 18 17 15 23 32 46 54 51 41 43 36 35
46 47 45 48 53 47 40 33 28 27 22 16 11 12 16 16 17 21 25 27 12 27 36 54 58 58 59 57 52 46 40 41
41 41 42 43 45 49 49 41 37 36 34 29 23 28 29 36 40 43 45 48 54 59 63 65 57 53 54 49 51 49 44 42
37 38 35 34 42 48 53 52 54 52 49 47 45 48 50 56 58 60 66 70 67 66 65 62 52 51 54 48 50 50 48 43
34 36 33 30 28 33 44 52 56 55 53 54 60 66 66 65 67 65 64 63 63 61 55 53 54 47 45 37 36 36 36 33
30 35 35 30 27 26 30 40 45 45 44 47 51 56 60 60 58 57 57 54 52 49 49 48 47 45 39 34 30 27 26 25
28 32 33 31 28 26 27 30 32 36 40 44 46 47 47 48 46 43 41 41 39 37 37 37 36 31 27 23 18 17 14 14
22 27 28 28 29 28 26 25 27 26 29 32 32 32 32 31 33 33 31 30 27 24 26 26 23 19 14 9 5 2 3 3
18 23 25 25 25 25 24 23 21 21 21 20 20 20 19 19 21 22 22 21 20 20 19 18 16 14 13 9 5 0 4 6
13 14 19 21 23 24 24 22 19 18 17 16 17 19 20 21 25 23 23 20 18 16 14 13 11 8 6 3 1 1 5 8
8 8 12 15 17 17 17 17 17 16 17 15 15 15 16 18 19 20 22 21 22 20 16 17 17 16 14 11 5 2 8 13
10 5 6 10 12 13 14 15 15 16 15 13 13 13 14 14 14 14 17 18 17 16 15 16 18 17 16 12 11 9 11 15
15 11 6 1 5 8 9 10 10 11 11 11 11 11 11 11 13 14 15 14 15 15 16 14 11 8 6 5 6 5 4 8
21 18 13 8 4 3 4 4 4 6 5 4 4 4 5 6 7 7 7 8 9 10 9 9 9 11 11 10 9 8 6 5
Wind_Direction_850mb
339 338 337 333 330 336 338 339 339 329 297 279 262 244 242 244 245 246 256 262 253 273 250 243 252 232 219 218 226 223 220 228
346 346 343 339 342 338 341 345 346 335 307 278 266 264 256 252 257 258 252 256 255 267 240 240 244 237 203 219 228 230 237 239
354 353 351 349 350 346 346 344 337 335 320 300 277 268 262 255 251 252 261 245 251 261 269 234 235 230 207 219 226 234 236 245
359 2 1 357 356 354 353 348 344 333 318 310 303 294 282 273 263 252 238 252 249 255 284 235 228 252 198 206 206 203 222 227
360 4 4 3 3 1 358 353 346 338 326 307 286 277 268 270 271 260 247 249 263 241 286 270 214 235 177 197 183 214 194 190
357 4 9 8 8 7 10 4 357 348 337 330 318 285 254 243 248 252 248 242 255 243 262 251 199 186 169 169 159 167 162 150
357 5 11 12 17 17 20 22 12 5 3 357 337 289 206 200 185 210 215 203 198 207 230 184 166 155 150 140 146 131 127 129
359 6 12 19 22 24 34 43 45 47 47 53 86 113 129 144 159 158 158 148 159 147 154 138 138 137 127 127 125 123 123 119
5 14 13 20 29 37 48 53 60 64 66 67 81 104 119 121 127 132 127 126 135 130 127 122 118 119 117 120 120 120 119 118
9 11 21 25 25 34 51 58 62 67 79 88 97 105 112 109 106 108 113 113 111 111 110 108 108 109 107 111 118 120 124 126
14 12 21 33 36 39 43 53 58 59 68 81 91 96 96 97 97 100 99 99 99 99 100 101 99 97 98 103 113 121 123 126
13 16 19 29 39 43 50 57 58 63 69 76 77 81 85 86 88 92 99 102 104 101 101 102 104 106 113 117 120 123 128 128
9 16 20 24 33 40 49 60 63 66 72 73 76 81 86 91 95 92 94 99 102 101 100 100 103 109 115 117 119 123 136 134
5 13 20 27 28 32 41 50 58 62 68 76 81 85 87 90 93 95 98 102 98 94 93 92 91 97 108 120 121 148 141 141
353 6 16 25 34 40 41 42 49 55 57 63 69 70 72 75 80 86 89 82 80 77 74 74 73 73 72 69 87 133 304 337
334 358 17 29 30 30 34 39 44 51 50 51 58 60 59 63 68 65 67 67 67 61 51 50 46 39 31 39 44 340 307 311
302 342 15 29 34 40 45 49 49 51 55 53 56 57 60 61 57 56 53 44 36 34 32 24 21 18 7 9 347 307 293 296
249 270 359 26 33 34 39 44 46 48 50 46 44 39 37 37 42 37 31 30 24 25 19 10 5 3 359 351 339 314 277 259
239 237 238 322 30 26 28 34 38 41 45 47 40 34 28 26 25 17 13 14 9 4 4 7 10 10 11 2 5 350 293 285
237 236 239 241 254 310 349 5 29 30 23 22 20 20 5 357 349 346 335 332 333 341 348 349 352 354 355 356 0 355 335 299